Flag for Romania Weather past 2 weeks in Bucharest, Romania

Now
61 °F

Passing clouds.


Feels Like: 61 °F
Forecast: 52 / 64 °F
Wind: 6 mph from Northeast

Location: Bucharest / Imh

Current Time: Oct 2, 2014 at 8:21:16 AM

Latest Report: Oct 2, 2014 at 8:00 AM


Visibility: 4 mi

Pressure: 30.33 "Hg

Humidity: 94%

Dew point: 59 °F

Location of BucharestLocation

Historic Weather in Bucharest — Graph

°F

Bucharest temperature yesterday

Maximum temperature yesterday: 77 °F (at 2:30 PM)
Minimum temperature yesterday: 50 °F (at 5:30 AM)
Average temperature yesterday: 64 °F

Past Weeks' High & Low Weather Summary

 TemperatureHumidityPressure
High82 °F (Sep 22, 4:00 PM)100% (Sep 23, 2:00 PM)30.48 "Hg (Sep 23, 2:00 PM)
Low41 °F (Sep 25, 6:30 AM)21% (Sep 18, 4:00 PM)29.65 "Hg (Sep 22, 4:00 PM)
Average61 °F65%30.09 "Hg
* Reported Sep 17 7:00 AM — Oct 2 7:00 AM, Bucharest, Weather by CustomWeather, © 2014

Note: Actual official high and low records may vary slightly from our data, if they occured in-between our weather recording intervals... More about our weather records

Advertising

Bucharest weather history for previous 24 hours

 ConditionsComfort  
Time TempWeatherWind HumidityBarometerVisibility
7:00 AM
Oct 2
59 °FPassing clouds.6 mph100%30.30 "Hg4 mi
6:30 AM59 °FClear.6 mph94%30.30 "Hg10 mi
6:00 AM59 °FClear.6 mph88%30.30 "Hg10 mi
5:30 AM59 °FClear.6 mph88%30.30 "Hg10 mi
5:00 AM57 °FPassing clouds.6 mph94%30.30 "HgN/A
4:30 AM57 °FClear.6 mph94%30.30 "Hg10 mi
4:00 AM57 °FClear.6 mph94%30.30 "Hg10 mi
3:00 AM59 °FClear.8 mph94%30.30 "Hg10 mi
2:30 AM59 °FClear.8 mph94%30.30 "Hg10 mi
1:00 AM61 °FClear.6 mph83%30.30 "Hg10 mi
12:30 AM61 °FClear.7 mph83%30.30 "Hg10 mi
12:00 AM61 °FPassing clouds.7 mph83%30.27 "HgN/A
11:30 PM
Oct 1
63 °FClear.9 mph73%30.27 "Hg10 mi
11:00 PM64 °FClear.9 mph68%30.27 "Hg10 mi
10:30 PM64 °FPassing clouds.9 mph68%30.27 "HgN/A
10:00 PM64 °FClear.8 mph73%30.27 "Hg10 mi
9:30 PM66 °FClear.8 mph68%30.27 "Hg10 mi
9:00 PM63 °FPassing clouds.6 mph64%30.27 "HgN/A
8:30 PM63 °FClear.No wind73%30.24 "Hg10 mi
8:00 PM64 °FClear.2 mph64%30.24 "Hg10 mi
7:30 PM68 °FSunny.2 mph53%30.24 "Hg10 mi
7:00 PM70 °FSunny.1 mph46%30.24 "Hg10 mi
6:30 PM73 °FSunny.3 mph38%30.21 "Hg10 mi
6:00 PM75 °FPassing clouds.5 mph31%30.21 "HgN/A
5:30 PM77 °FPassing clouds.3 mph28%30.21 "HgN/A
5:00 PM77 °FPassing clouds.6 mph28%30.21 "HgN/A
4:30 PM77 °FPassing clouds.6 mph28%30.21 "HgN/A
4:00 PM77 °FPassing clouds.6 mph30%30.21 "HgN/A
3:30 PM77 °FPassing clouds.5 mph32%30.21 "HgN/A
3:00 PM77 °FPassing clouds.6 mph30%30.24 "HgN/A
2:30 PM77 °FPassing clouds.6 mph32%30.24 "HgN/A
2:00 PM75 °FPassing clouds.6 mph36%30.24 "HgN/A
1:30 PM75 °FPassing clouds.6 mph36%30.24 "HgN/A
1:00 PM73 °FPassing clouds.7 mph38%30.24 "HgN/A
12:30 PM73 °FPassing clouds.7 mph38%30.27 "HgN/A
12:00 PM72 °FPassing clouds.9 mph38%30.24 "HgN/A
11:30 AM70 °FPassing clouds.8 mph46%30.24 "HgN/A
11:00 AM68 °FPassing clouds.8 mph49%30.24 "HgN/A
10:30 AM66 °FPassing clouds.8 mph52%30.24 "HgN/A
10:00 AM63 °FPassing clouds.6 mph59%30.24 "HgN/A
9:30 AM61 °FPassing clouds.3 mph68%30.24 "HgN/A
9:00 AM59 °FSunny.No wind72%30.24 "Hg10 mi
8:30 AM55 °FSunny.2 mph77%30.24 "Hg10 mi
8:00 AM52 °FClear.No wind88%30.24 "Hg10 mi
Weather by CustomWeather, © 2014

See weather overviewHow to use our weather pages